| time (UTC) | temp C | wind direction | speed KPH | gust KPH | rain 1hr cm | rain 24hr cm | rain mn cm | humidity % | barometer mb |
| 20260502130446 | 9 | 213 | 1.6 | 3.2 | 0.00 | 0.00 | 0.00 | 46 | 1020.3 |
| 20260502123429 | 7 | 213 | 3.2 | 3.2 | 0.00 | 0.00 | 0.00 | 48 | 1020.2 |
| 20260502122926 | 7 | 227 | 3.2 | 3.2 | 0.00 | 0.00 | 0.00 | 48 | 1020.2 |
| 20260502122422 | 7 | 227 | 3.2 | 3.2 | 0.00 | 0.00 | 0.00 | 49 | 1020.3 |
| 20260502121920 | 7 | 222 | 0.0 | 1.6 | 0.00 | 0.00 | 0.00 | 51 | 1020.1 |
| 20260502121417 | 7 | 222 | 0.0 | 0.0 | 0.00 | 0.00 | 0.00 | 51 | 1020.4 |
| 20260502120915 | 7 | 223 | 1.6 | 1.6 | 0.00 | 0.00 | 0.00 | 48 | 1020.2 |
| 20260502120410 | 7 | 227 | 1.6 | 1.6 | 0.00 | 0.00 | 0.00 | 48 | 1020.2 |
| 20260502115908 | 7 | 223 | 1.6 | 1.6 | 0.00 | 0.00 | 0.00 | 48 | 1020.2 |
| 20260502115405 | 7 | 226 | 1.6 | 1.6 | 0.00 | 0.00 | 0.00 | 48 | 1020.3 |
| 20260502114901 | 7 | 226 | 3.2 | 4.8 | 0.00 | 0.00 | 0.00 | 48 | 1020.1 |
| 20260502114358 | 7 | 228 | 4.8 | 4.8 | 0.00 | 0.00 | 0.00 | 49 | 1020.1 |
| 20260502113855 | 7 | 228 | 3.2 | 3.2 | 0.00 | 0.00 | 0.00 | 50 | 1020.1 |
| 20260502113352 | 8 | 214 | 1.6 | 1.6 | 0.00 | 0.00 | 0.00 | 51 | 1020.3 |
| 20260502112851 | 8 | 203 | 3.2 | 3.2 | 0.00 | 0.00 | 0.00 | 51 | 1019.9 |
| 20260502112348 | 8 | 191 | 3.2 | 3.2 | 0.00 | 0.00 | 0.00 | 50 | 1020.1 |
| 20260502111845 | 8 | 228 | 1.6 | 1.6 | 0.00 | 0.00 | 0.00 | 53 | 1020.3 |
| 20260502111342 | 8 | 219 | 3.2 | 3.2 | 0.00 | 0.00 | 0.00 | 55 | 1020.1 |
| 20260502110840 | 8 | 197 | 0.0 | 1.6 | 0.00 | 0.00 | 0.00 | 58 | 1020.3 |
| 20260502110338 | 8 | 187 | 3.2 | 8.0 | 0.00 | 0.00 | 0.00 | 58 | 1020.3 |
| 20260502105835 | 8 | 186 | 4.8 | 4.8 | 0.00 | 0.00 | 0.00 | 58 | 1020.2 |
| 20260502105332 | 8 | 175 | 0.0 | 1.6 | 0.00 | 0.00 | 0.00 | 59 | 1020.2 |
| 20260502104830 | 8 | 166 | 4.8 | 8.0 | 0.00 | 0.00 | 0.00 | 57 | 1020.3 |
| 20260502104327 | 8 | 164 | 4.8 | 8.0 | 0.00 | 0.00 | 0.00 | 55 | 1020.3 |
| 20260502103824 | 8 | 225 | 0.0 | 1.6 | 0.00 | 0.00 | 0.00 | 55 | 1020.4 |
| 20260502103321 | 8 | 198 | 3.2 | 4.8 | 0.00 | 0.00 | 0.00 | 56 | 1020.2 |
| 20260502102819 | 9 | 207 | 1.6 | 3.2 | 0.00 | 0.00 | 0.00 | 56 | 1020.3 |
| 20260502102315 | 8 | 188 | 3.2 | 4.8 | 0.00 | 0.00 | 0.00 | 54 | 1020.2 |
| 20260502101813 | 8 | 164 | 4.8 | 8.0 | 0.00 | 0.00 | 0.00 | 51 | 1020.3 |
| 20260502101311 | 8 | 228 | 1.6 | 1.6 | 0.00 | 0.00 | 0.00 | 49 | 1020.1 |
| 20260502100809 | 8 | 234 | 1.6 | 1.6 | 0.00 | 0.00 | 0.00 | 48 | 1020.2 |
| 20260502100308 | 8 | 233 | 3.2 | 3.2 | 0.00 | 0.00 | 0.00 | 48 | 1020.1 |
| 20260502091241 | 8 | 236 | 1.6 | 1.6 | 0.00 | 0.00 | 0.00 | 48 | 1019.8 |
| 20260502090738 | 8 | 234 | 0.0 | 0.0 | 0.00 | 0.00 | 0.00 | 48 | 1019.9 |
| 20260502090235 | 8 | 235 | 1.6 | 3.2 | 0.00 | 0.00 | 0.00 | 48 | 1019.8 |
| 20260502071136 | 8 | 244 | 3.2 | 3.2 | 0.00 | 0.00 | 0.00 | 49 | 1020.3 |
| 20260502070634 | 8 | 241 | 3.2 | 3.2 | 0.00 | 0.00 | 0.00 | 51 | 1020.3 |
| 20260502070131 | 8 | 243 | 1.6 | 1.6 | 0.00 | 0.00 | 0.00 | 50 | 1020.3 |
| 20260502065630 | 8 | 243 | 1.6 | 1.6 | 0.00 | 0.00 | 0.00 | 49 | 1020.3 |
| 20260502065127 | 8 | 244 | 1.6 | 1.6 | 0.00 | 0.00 | 0.00 | 47 | 1020.4 |
| 20260502064626 | 8 | 237 | 3.2 | 3.2 | 0.00 | 0.00 | 0.00 | 50 | 1019.9 |
| 20260502064122 | 8 | 240 | 4.8 | 4.8 | 0.00 | 0.00 | 0.00 | 53 | 1020.2 |
| 20260502063620 | 8 | 261 | 0.0 | 0.0 | 0.00 | 0.00 | 0.00 | 52 | 1020.2 |
| 20260502063117 | 9 | 261 | 0.0 | 0.0 | 0.00 | 0.00 | 0.00 | 51 | 1020.1 |
| 20260502062614 | 8 | 261 | 0.0 | 0.0 | 0.00 | 0.00 | 0.00 | 51 | 1019.9 |
| 20260502062112 | 8 | 262 | 0.0 | 0.0 | 0.00 | 0.00 | 0.00 | 50 | 1020.3 |
| 20260502061610 | 8 | 261 | 0.0 | 0.0 | 0.00 | 0.00 | 0.00 | 51 | 1020.4 |
| 20260502061108 | 8 | 257 | 0.0 | 1.6 | 0.00 | 0.00 | 0.00 | 53 | 1019.8 |
| 20260502060608 | 9 | 257 | 1.6 | 1.6 | 0.00 | 0.00 | 0.00 | 54 | 1020.1 |
| 20260502060105 | 9 | 256 | 0.0 | 0.0 | 0.00 | 0.00 | 0.00 | 50 | 1019.9 |
| 20260502055602 | 9 | 257 | 0.0 | 0.0 | 0.00 | 0.00 | 0.00 | 47 | 1019.8 |
| 20260502055100 | 10 | 257 | 0.0 | 0.0 | 0.00 | 0.00 | 0.00 | 47 | 1019.8 |
| 20260502054559 | 10 | 244 | 0.0 | 0.0 | 0.00 | 0.00 | 0.00 | 47 | 1020.1 |
| 20260502054055 | 10 | 244 | 1.6 | 1.6 | 0.00 | 0.00 | 0.00 | 47 | 1019.8 |
| 20260502053553 | 10 | 247 | 1.6 | 1.6 | 0.00 | 0.00 | 0.00 | 46 | 1019.7 |
| 20260502053050 | 10 | 267 | 0.0 | 0.0 | 0.00 | 0.00 | 0.00 | 43 | 1019.9 |
| 20260502052549 | 10 | 264 | 3.2 | 3.2 | 0.00 | 0.00 | 0.00 | 43 | 1019.9 |
| 20260502052046 | 10 | 256 | 0.0 | 0.0 | 0.00 | 0.00 | 0.00 | 46 | 1019.6 |
| 20260502051544 | 11 | 255 | 0.0 | 0.0 | 0.00 | 0.00 | 0.00 | 43 | 1019.8 |
| 20260502051042 | 11 | 255 | 0.0 | 0.0 | 0.00 | 0.00 | 0.00 | 41 | 1019.9 |
| 20260502050537 | 11 | 254 | 0.0 | 0.0 | 0.00 | 0.00 | 0.00 | 41 | 1019.8 |
| 20260502050035 | 11 | 254 | 0.0 | 0.0 | 0.00 | 0.00 | 0.00 | 42 | 1019.9 |
| 20260502045531 | 11 | 254 | 0.0 | 0.0 | 0.00 | 0.00 | 0.00 | 42 | 1020.1 |
| 20260502045029 | 11 | 259 | 0.0 | 0.0 | 0.00 | 0.00 | 0.00 | 44 | 1020.1 |
| 20260502044525 | 11 | 261 | 0.0 | 0.0 | 0.00 | 0.00 | 0.00 | 41 | 1019.9 |
| 20260502044022 | 11 | 269 | 0.0 | 0.0 | 0.00 | 0.00 | 0.00 | 38 | 1019.8 |
| 20260502043519 | 12 | 285 | 0.0 | 0.0 | 0.00 | 0.00 | 0.00 | 37 | 1019.7 |
| 20260502043015 | 12 | 289 | 1.6 | 1.6 | 0.00 | 0.00 | 0.00 | 36 | 1019.7 |
| 20260502042510 | 12 | 312 | 4.8 | 4.8 | 0.00 | 0.00 | 0.00 | 36 | 1019.8 |
| 20260502042008 | 12 | 306 | 3.2 | 3.2 | 0.00 | 0.00 | 0.00 | 36 | 1019.8 |
| 20260502041506 | 12 | 302 | 1.6 | 3.2 | 0.00 | 0.00 | 0.00 | 37 | 1019.6 |
| 20260502041003 | 12 | 306 | 1.6 | 1.6 | 0.00 | 0.00 | 0.00 | 36 | 1019.8 |
| 20260502040459 | 12 | 305 | 3.2 | 3.2 | 0.00 | 0.00 | 0.00 | 36 | 1019.7 |
| 20260502035956 | 12 | 313 | 3.2 | 3.2 | 0.00 | 0.00 | 0.00 | 36 | 1019.7 |
| 20260502035451 | 12 | 305 | 0.0 | 0.0 | 0.00 | 0.00 | 0.00 | 36 | 1019.5 |
| 20260502034950 | 12 | 279 | 0.0 | 0.0 | 0.00 | 0.00 | 0.00 | 36 | 1019.5 |
| 20260502034448 | 12 | 274 | 0.0 | 0.0 | 0.00 | 0.00 | 0.00 | 36 | 1019.4 |
| 20260502033946 | 12 | 287 | 0.0 | 0.0 | 0.00 | 0.00 | 0.00 | 36 | 1019.6 |
| 20260502033443 | 12 | 275 | 0.0 | 0.0 | 0.00 | 0.00 | 0.00 | 36 | 1019.4 |
| 20260502032940 | 12 | 283 | 0.0 | 1.6 | 0.00 | 0.00 | 0.00 | 36 | 1019.1 |
| 20260502032436 | 12 | 283 | 0.0 | 0.0 | 0.00 | 0.00 | 0.00 | 35 | 1019.1 |
| 20260502031933 | 12 | 303 | 3.2 | 3.2 | 0.00 | 0.00 | 0.00 | 34 | 1019.2 |
| 20260502031432 | 13 | 320 | 6.4 | 9.7 | 0.00 | 0.00 | 0.00 | 34 | 1019.0 |
| 20260502030930 | 13 | 277 | 4.8 | 4.8 | 0.00 | 0.00 | 0.00 | 34 | 1018.9 |
| 20260502030428 | 13 | 298 | 4.8 | 4.8 | 0.00 | 0.00 | 0.00 | 34 | 1018.9 |
| 20260502025925 | 13 | 290 | 4.8 | 4.8 | 0.00 | 0.00 | 0.00 | 34 | 1018.4 |
| 20260502025422 | 13 | 304 | 3.2 | 3.2 | 0.00 | 0.00 | 0.00 | 34 | 1018.6 |
| 20260502024920 | 13 | 294 | 1.6 | 3.2 | 0.00 | 0.00 | 0.00 | 34 | 1018.6 |
| 20260502024418 | 13 | 327 | 6.4 | 8.0 | 0.00 | 0.00 | 0.00 | 33 | 1018.7 |
| 20260502023916 | 14 | 312 | 1.6 | 3.2 | 0.00 | 0.00 | 0.00 | 33 | 1018.3 |
| 20260502023413 | 14 | 304 | 3.2 | 4.8 | 0.00 | 0.00 | 0.00 | 32 | 1018.6 |
| 20260502022910 | 15 | 319 | 6.4 | 9.7 | 0.00 | 0.00 | 0.00 | 31 | 1018.8 |
| 20260502022407 | 15 | 296 | 1.6 | 1.6 | 0.00 | 0.00 | 0.00 | 31 | 1018.6 |
| 20260502021903 | 15 | 322 | 4.8 | 4.8 | 0.00 | 0.00 | 0.00 | 30 | 1018.6 |
| 20260502021401 | 15 | 301 | 9.7 | 11.3 | 0.00 | 0.00 | 0.00 | 30 | 1018.4 |
| 20260502020858 | 15 | 293 | 4.8 | 4.8 | 0.00 | 0.00 | 0.00 | 30 | 1018.2 |
| 20260502020356 | 15 | 274 | 8.0 | 9.7 | 0.00 | 0.00 | 0.00 | 29 | 1018.2 |
| 20260502015852 | 16 | 297 | 6.4 | 8.0 | 0.00 | 0.00 | 0.00 | 29 | 1018.3 |
| 20260502015350 | 16 | 275 | 9.7 | 11.3 | 0.00 | 0.00 | 0.00 | 28 | 1018.3 |
| 20260502014847 | 16 | 299 | 3.2 | 4.8 | 0.00 | 0.00 | 0.00 | 29 | 1018.3 |
| 20260502014344 | 16 | 315 | 6.4 | 8.0 | 0.00 | 0.00 | 0.00 | 28 | 1018.4 |
| 20260502013840 | 16 | 316 | 4.8 | 8.0 | 0.00 | 0.00 | 0.00 | 28 | 1018.2 |
| 20260502013335 | 16 | 351 | 6.4 | 11.3 | 0.00 | 0.00 | 0.00 | 28 | 1018.4 |
| 20260502012832 | 16 | 331 | 11.3 | 16.1 | 0.00 | 0.00 | 0.00 | 28 | 1018.3 |
| 20260502012330 | 17 | 0 | 6.4 | 9.7 | 0.00 | 0.00 | 0.00 | 28 | 1018.1 |
| 20260502011827 | 16 | 23 | 11.3 | 14.5 | 0.00 | 0.00 | 0.00 | 28 | 1018.1 |
| 20260502011323 | 17 | 354 | 11.3 | 12.9 | 0.00 | 0.00 | 0.00 | 28 | 1018.1 |
| 20260502010821 | 16 | 352 | 8.0 | 11.3 | 0.00 | 0.00 | 0.00 | 28 | 1018.3 |
| 20260502010317 | 16 | 330 | 6.4 | 8.0 | 0.00 | 0.00 | 0.00 | 29 | 1018.1 |
| 20260502005814 | 17 | 14 | 11.3 | 14.5 | 0.00 | 0.00 | 0.00 | 28 | 1018.1 |
| 20260502005312 | 17 | 18 | 3.2 | 9.7 | 0.00 | 0.00 | 0.00 | 28 | 1018.2 |
| 20260502004809 | 17 | 329 | 8.0 | 11.3 | 0.00 | 0.00 | 0.00 | 28 | 1018.1 |
| 20260502004305 | 17 | 323 | 6.4 | 8.0 | 0.00 | 0.00 | 0.00 | 28 | 1018.2 |
| 20260502003803 | 17 | 328 | 6.4 | 9.7 | 0.00 | 0.00 | 0.00 | 28 | 1018.1 |
| 20260502003259 | 17 | 351 | 8.0 | 11.3 | 0.00 | 0.00 | 0.00 | 28 | 1018.2 |
| 20260502002755 | 17 | 42 | 11.3 | 14.5 | 0.00 | 0.00 | 0.00 | 27 | 1018.0 |
| 20260502002253 | 17 | 341 | 9.7 | 12.9 | 0.00 | 0.00 | 0.00 | 28 | 1017.9 |
| 20260502001750 | 17 | 15 | 11.3 | 12.9 | 0.00 | 0.00 | 0.00 | 27 | 1018.3 |
| 20260502001248 | 17 | 46 | 11.3 | 17.7 | 0.00 | 0.00 | 0.00 | 27 | 1018.1 |
| 20260502000746 | 17 | 353 | 12.9 | 16.1 | 0.00 | 0.00 | 0.00 | 28 | 1018.1 |
| 20260502000244 | 17 | 2 | 6.4 | 8.0 | 0.00 | 0.00 | 0.00 | 27 | 1018.1 |
| 20260501235738 | 17 | 67 | 9.7 | 11.3 | 0.00 | 0.00 | 0.00 | 27 | 1018.4 |
| 20260501235235 | 17 | 354 | 4.8 | 4.8 | 0.00 | 0.00 | 0.00 | 27 | 1018.1 |
| 20260501234731 | 17 | 314 | 12.9 | 16.1 | 0.00 | 0.00 | 0.00 | 27 | 1018.2 |
| 20260501234228 | 17 | 329 | 8.0 | 11.3 | 0.00 | 0.00 | 0.00 | 27 | 1018.3 |
| 20260501233726 | 17 | 281 | 9.7 | 12.9 | 0.00 | 0.00 | 0.00 | 27 | 1018.3 |
| 20260501233224 | 17 | 317 | 3.2 | 4.8 | 0.00 | 0.00 | 0.00 | 27 | 1018.3 |
| 20260501232718 | 17 | 88 | 8.0 | 11.3 | 0.00 | 0.00 | 0.00 | 26 | 1018.1 |
| 20260501232216 | 17 | 318 | 4.8 | 4.8 | 0.00 | 0.00 | 0.00 | 26 | 1018.2 |
| 20260501231714 | 17 | 11 | 9.7 | 12.9 | 0.00 | 0.00 | 0.00 | 26 | 1018.1 |
| 20260501231212 | 17 | 92 | 3.2 | 8.0 | 0.00 | 0.00 | 0.00 | 25 | 1018.3 |
| 20260501230710 | 17 | 27 | 6.4 | 12.9 | 0.00 | 0.00 | 0.00 | 26 | 1018.3 |
| 20260501230208 | 17 | 77 | 8.0 | 9.7 | 0.00 | 0.00 | 0.00 | 25 | 1018.2 |
| 20260501225705 | 17 | 344 | 4.8 | 4.8 | 0.00 | 0.00 | 0.00 | 25 | 1018.2 |
| 20260501225202 | 17 | 20 | 8.0 | 11.3 | 0.00 | 0.00 | 0.00 | 24 | 1018.6 |
| 20260501224658 | 17 | 346 | 3.2 | 4.8 | 0.00 | 0.00 | 0.00 | 25 | 1018.6 |
| 20260501224156 | 17 | 308 | 8.0 | 11.3 | 0.00 | 0.00 | 0.00 | 25 | 1018.4 |
| 20260501223652 | 17 | 18 | 8.0 | 12.9 | 0.00 | 0.00 | 0.00 | 24 | 1018.3 |
| 20260501223149 | 17 | 25 | 8.0 | 12.9 | 0.00 | 0.00 | 0.00 | 24 | 1018.7 |
| 20260501222645 | 17 | 337 | 8.0 | 12.9 | 0.00 | 0.00 | 0.00 | 24 | 1018.7 |
| 20260501222142 | 18 | 337 | 6.4 | 9.7 | 0.00 | 0.00 | 0.00 | 25 | 1018.6 |
| 20260501221638 | 18 | 326 | 12.9 | 16.1 | 0.00 | 0.00 | 0.00 | 24 | 1018.4 |
| 20260501221137 | 17 | 358 | 3.2 | 4.8 | 0.00 | 0.00 | 0.00 | 25 | 1018.6 |
| 20260501220634 | 17 | 258 | 11.3 | 12.9 | 0.00 | 0.00 | 0.00 | 24 | 1018.6 |
| 20260501220130 | 17 | 324 | 6.4 | 9.7 | 0.00 | 0.00 | 0.00 | 25 | 1018.4 |
| 20260501215627 | 17 | 30 | 12.9 | 14.5 | 0.00 | 0.00 | 0.00 | 25 | 1018.9 |
| 20260501215122 | 18 | 98 | 12.9 | 14.5 | 0.00 | 0.00 | 0.00 | 24 | 1018.9 |
| 20260501214618 | 18 | 321 | 6.4 | 14.5 | 0.00 | 0.00 | 0.00 | 25 | 1018.7 |
| 20260501214113 | 17 | 345 | 9.7 | 14.5 | 0.00 | 0.00 | 0.00 | 25 | 1018.8 |
| 20260501213611 | 17 | 331 | 11.3 | 11.3 | 0.00 | 0.00 | 0.00 | 26 | 1018.9 |
| 20260501213107 | 17 | 275 | 6.4 | 8.0 | 0.00 | 0.00 | 0.00 | 26 | 1019.0 |
| 20260501212603 | 17 | 308 | 11.3 | 14.5 | 0.00 | 0.00 | 0.00 | 26 | 1018.9 |
| 20260501212100 | 17 | 301 | 12.9 | 14.5 | 0.00 | 0.00 | 0.00 | 26 | 1018.9 |
| 20260501211556 | 17 | 2 | 9.7 | 11.3 | 0.00 | 0.00 | 0.00 | 24 | 1018.9 |
| 20260501211055 | 17 | 30 | 3.2 | 4.8 | 0.00 | 0.00 | 0.00 | 26 | 1019.0 |
| 20260501210550 | 17 | 199 | 1.6 | 3.2 | 0.00 | 0.00 | 0.00 | 25 | 1019.1 |
| 20260501210048 | 17 | 60 | 3.2 | 3.2 | 0.00 | 0.00 | 0.00 | 25 | 1019.4 |
| 20260501205544 | 17 | 92 | 6.4 | 8.0 | 0.00 | 0.00 | 0.00 | 26 | 1019.1 |
| 20260501205042 | 17 | 6 | 9.7 | 12.9 | 0.00 | 0.00 | 0.00 | 26 | 1019.0 |
| 20260501204538 | 17 | 288 | 4.8 | 8.0 | 0.00 | 0.00 | 0.00 | 26 | 1019.2 |
| 20260501204034 | 17 | 322 | 4.8 | 8.0 | 0.00 | 0.00 | 0.00 | 25 | 1019.2 |
| 20260501203531 | 16 | 277 | 8.0 | 9.7 | 0.00 | 0.00 | 0.00 | 26 | 1019.2 |
| 20260501203029 | 17 | 359 | 14.5 | 17.7 | 0.00 | 0.00 | 0.00 | 26 | 1018.9 |
| 20260501202525 | 17 | 113 | 3.2 | 4.8 | 0.00 | 0.00 | 0.00 | 25 | 1019.2 |
| 20260501202022 | 16 | 294 | 8.0 | 12.9 | 0.00 | 0.00 | 0.00 | 27 | 1019.0 |
| 20260501201519 | 17 | 274 | 6.4 | 8.0 | 0.00 | 0.00 | 0.00 | 26 | 1019.2 |
| 20260501201015 | 16 | 241 | 0.0 | 1.6 | 0.00 | 0.00 | 0.00 | 26 | 1019.2 |
| 20260501200513 | 16 | 271 | 9.7 | 11.3 | 0.00 | 0.00 | 0.00 | 27 | 1019.1 |
| 20260501200010 | 17 | 292 | 11.3 | 16.1 | 0.00 | 0.00 | 0.00 | 26 | 1019.2 |
| 20260501195507 | 16 | 80 | 4.8 | 4.8 | 0.00 | 0.00 | 0.00 | 26 | 1019.5 |
| 20260501195003 | 16 | 226 | 0.0 | 1.6 | 0.00 | 0.00 | 0.00 | 24 | 1019.5 |
| 20260501194458 | 16 | 293 | 8.0 | 11.3 | 0.00 | 0.00 | 0.00 | 25 | 1019.6 |
| 20260501193954 | 17 | 304 | 1.6 | 3.2 | 0.00 | 0.00 | 0.00 | 26 | 1019.6 |
| 20260501193452 | 16 | 112 | 1.6 | 1.6 | 0.00 | 0.00 | 0.00 | 25 | 1019.5 |
| 20260501192950 | 16 | 53 | 4.8 | 9.7 | 0.00 | 0.00 | 0.00 | 26 | 1019.6 |
| 20260501192447 | 16 | 12 | 11.3 | 12.9 | 0.00 | 0.00 | 0.00 | 26 | 1019.6 |
| 20260501191944 | 17 | 276 | 12.9 | 14.5 | 0.00 | 0.00 | 0.00 | 25 | 1019.7 |
| 20260501191441 | 17 | 154 | 6.4 | 8.0 | 0.00 | 0.00 | 0.00 | 23 | 1019.6 |
| 20260501190938 | 16 | 21 | 8.0 | 14.5 | 0.00 | 0.00 | 0.00 | 25 | 1019.8 |
| 20260501190434 | 16 | 253 | 4.8 | 4.8 | 0.00 | 0.00 | 0.00 | 25 | 1019.8 |
| 20260501185929 | 16 | 42 | 12.9 | 14.5 | 0.00 | 0.00 | 0.00 | 25 | 1019.8 |
| 20260501185426 | 16 | 1 | 16.1 | 17.7 | 0.00 | 0.00 | 0.00 | 26 | 1019.8 |
| 20260501184921 | 16 | 312 | 8.0 | 12.9 | 0.00 | 0.00 | 0.00 | 27 | 1019.8 |
| 20260501184418 | 16 | 358 | 9.7 | 12.9 | 0.00 | 0.00 | 0.00 | 27 | 1019.9 |
| 20260501183913 | 15 | 6 | 11.3 | 14.5 | 0.00 | 0.00 | 0.00 | 28 | 1020.2 |
| 20260501183411 | 15 | 314 | 6.4 | 8.0 | 0.00 | 0.00 | 0.00 | 28 | 1019.9 |
| 20260501182907 | 15 | 319 | 1.6 | 3.2 | 0.00 | 0.00 | 0.00 | 26 | 1020.1 |
| 20260501182404 | 15 | 37 | 4.8 | 8.0 | 0.00 | 0.00 | 0.00 | 26 | 1019.9 |
| 20260501181900 | 16 | 109 | 11.3 | 14.5 | 0.00 | 0.00 | 0.00 | 26 | 1020.2 |
| 20260501181357 | 15 | 85 | 8.0 | 14.5 | 0.00 | 0.00 | 0.00 | 26 | 1020.4 |
| 20260501180855 | 16 | 291 | 3.2 | 4.8 | 0.00 | 0.00 | 0.00 | 24 | 1020.2 |
| 20260501180351 | 16 | 93 | 6.4 | 11.3 | 0.00 | 0.00 | 0.00 | 27 | 1019.9 |
| 20260501175848 | 15 | 17 | 9.7 | 12.9 | 0.00 | 0.00 | 0.00 | 27 | 1020.3 |
| 20260501175345 | 15 | 345 | 4.8 | 4.8 | 0.00 | 0.00 | 0.00 | 27 | 1020.4 |
| 20260501174842 | 14 | 335 | 1.6 | 3.2 | 0.00 | 0.00 | 0.00 | 29 | 1020.4 |
| 20260501174339 | 14 | 253 | 6.4 | 8.0 | 0.00 | 0.00 | 0.00 | 31 | 1020.5 |
| 20260501173837 | 14 | 340 | 8.0 | 11.3 | 0.00 | 0.00 | 0.00 | 31 | 1020.6 |
| 20260501173334 | 14 | 262 | 4.8 | 8.0 | 0.00 | 0.00 | 0.00 | 31 | 1020.5 |
| 20260501172830 | 14 | 36 | 8.0 | 9.7 | 0.00 | 0.00 | 0.00 | 31 | 1020.4 |
| 20260501172325 | 15 | 54 | 0.0 | 0.0 | 0.00 | 0.00 | 0.00 | 30 | 1020.7 |
| 20260501171821 | 14 | 319 | 0.0 | 0.0 | 0.00 | 0.00 | 0.00 | 30 | 1020.5 |
| 20260501171318 | 14 | 265 | 3.2 | 3.2 | 0.00 | 0.00 | 0.00 | 32 | 1020.5 |
| 20260501170814 | 14 | 118 | 3.2 | 3.2 | 0.00 | 0.00 | 0.00 | 31 | 1020.5 |
| 20260501170311 | 13 | 249 | 8.0 | 9.7 | 0.00 | 0.00 | 0.00 | 32 | 1020.5 |
| 20260501165809 | 14 | 94 | 8.0 | 11.3 | 0.00 | 0.00 | 0.00 | 31 | 1020.6 |
| 20260501165307 | 15 | 255 | 0.0 | 0.0 | 0.00 | 0.00 | 0.00 | 30 | 1020.6 |
| 20260501164804 | 13 | 6 | 6.4 | 9.7 | 0.00 | 0.00 | 0.00 | 33 | 1020.7 |
| 20260501164301 | 13 | 55 | 6.4 | 9.7 | 0.00 | 0.00 | 0.00 | 31 | 1020.5 |
| 20260501163756 | 13 | 265 | 3.2 | 3.2 | 0.00 | 0.00 | 0.00 | 32 | 1020.5 |
| 20260501163254 | 13 | 350 | 4.8 | 4.8 | 0.00 | 0.00 | 0.00 | 33 | 1020.6 |
| 20260501162750 | 13 | 31 | 3.2 | 3.2 | 0.00 | 0.00 | 0.00 | 33 | 1020.6 |
| 20260501162247 | 13 | 100 | 3.2 | 3.2 | 0.00 | 0.00 | 0.00 | 32 | 1020.6 |
| 20260501161738 | 12 | 274 | 0.0 | 0.0 | 0.00 | 0.00 | 0.00 | 34 | 1020.5 |
| 20260501161235 | 12 | 269 | 4.8 | 4.8 | 0.00 | 0.00 | 0.00 | 36 | 1020.4 |
| 20260501160731 | 13 | 284 | 1.6 | 3.2 | 0.00 | 0.00 | 0.00 | 36 | 1020.4 |
| 20260501160229 | 13 | 118 | 0.0 | 0.0 | 0.00 | 0.00 | 0.00 | 35 | 1020.4 |
| 20260501155726 | 13 | 341 | 4.8 | 4.8 | 0.00 | 0.00 | 0.00 | 35 | 1020.3 |
| 20260501155223 | 13 | 126 | 1.6 | 1.6 | 0.00 | 0.00 | 0.00 | 37 | 1020.6 |
| 20260501154719 | 13 | 89 | 4.8 | 8.0 | 0.00 | 0.00 | 0.00 | 38 | 1020.2 |
| 20260501154217 | 12 | 144 | 4.8 | 4.8 | 0.00 | 0.00 | 0.00 | 40 | 1020.1 |
| 20260501153714 | 12 | 66 | 4.8 | 4.8 | 0.00 | 0.00 | 0.00 | 40 | 1020.2 |
| 20260501153211 | 14 | 88 | 3.2 | 4.8 | 0.00 | 0.00 | 0.00 | 36 | 1020.3 |
| 20260501152707 | 13 | 213 | 0.0 | 0.0 | 0.00 | 0.00 | 0.00 | 34 | 1020.3 |
| 20260501152205 | 12 | 246 | 1.6 | 1.6 | 0.00 | 0.00 | 0.00 | 37 | 1020.1 |
| 20260501151702 | 12 | 264 | 0.0 | 0.0 | 0.00 | 0.00 | 0.00 | 36 | 1020.2 |
| 20260501151158 | 12 | 271 | 1.6 | 1.6 | 0.00 | 0.00 | 0.00 | 36 | 1020.2 |
| 20260501150654 | 12 | 32 | 3.2 | 3.2 | 0.00 | 0.00 | 0.00 | 37 | 1020.3 |